Abingdon, VA

10:25 AM EST on December 06, 2016 (GMT -0500)
Virginia Highlands

Weather History for KVJI - September, 2013

Change the Weather History Date:

Friday, September 20, 2013

  Actual Average (KTRI) Record (KTRI)
Temperature  
Mean Temperature 70 °F 66 °F  
Max Temperature 80 °F 78 °F 91 °F (1955)
Min Temperature 61 °F 54 °F 42 °F (1981)
Degree Days  
Heating Degree Days 0 2  
Month to date heating degree days 15  
Since 1 July heating degree days 16  
Cooling Degree Days 6 3  
Month to date cooling degree days 97  
Year to date cooling degree days 949  
Growing Degree Days 20 (Base 50)    
Moisture  
Dew Point 66 °F    
Average Humidity 90    
Maximum Humidity 100    
Minimum Humidity 64    
Precipitation  
Precipitation 0.00 in 0.10 in 1.45 in (1957)
Month to date precipitation 2.08  
Year to date precipitation 31.53  
Snow  
Snow 0.00 in 0.00 in - ()
Month to date snowfall 0.0  
Since 1 July snowfall 0.0  
Since 1 September snowfall 0.0  
Snow Depth -    
Sea Level Pressure  
Sea Level Pressure 30.08 in    
Wind  
Wind Speed 1 mph (West)    
Max Wind Speed 8 mph    
Max Gust Speed -    
Visibility 6 miles    
Events Fog    
T = Trace of Precipitation, MM = Missing Value Source: NWS Daily Summary

Daily Weather History Graph

Daily Weather History Graph

Search for Another Location

Airport or City:

Trip Planner

Search our weather history database for the weather conditions in past years. The results will help you decide how hot, cold, wet, or windy it might be!

Date:

Astronomy

Sep. 20, 2013 Rise Set
Actual Time 7:14 AM EDT 7:27 PM EDT
Civil Twilight 6:48 AM EDT 7:53 PM EDT
Nautical Twilight 6:18 AM EDT 8:23 PM EDT
Astronomical Twilight 5:47 AM EDT 8:54 PM EDT
Moon 8:04 PM EDT (9/20) 8:24 AM EDT (9/20)
Length of Visible Light 13h 04m
Length of Day
12h 13m
Full, 98% of the Moon is Illuminated
Sep 20
Full
Sep 26
Last Quarter
Oct 4
New
Oct 11
First Quarter
Oct 18
Full

Hourly Weather History & Observations

Time (EDT) Temp. Heat Index Dew Point Humidity Pressure Visibility Wind Dir Wind Speed Gust Speed Precip Events Conditions
12:15 AM 63.7 °F - 63.7 °F 100% 30.15 in 0.2 mi Calm Calm - N/A Fog Fog
12:35 AM 62.8 °F - 62.8 °F 100% 30.15 in 0.5 mi Calm Calm - N/A Fog Fog
12:55 AM 63.3 °F - 63.3 °F 100% 30.15 in 0.2 mi Calm Calm - N/A Fog Fog
1:15 AM 62.6 °F - 62.6 °F 100% 30.15 in 0.2 mi Calm Calm - N/A Fog Fog
1:35 AM 63.1 °F - 63.1 °F 100% 30.15 in 0.2 mi Calm Calm - N/A Fog Fog
1:55 AM 62.6 °F - 62.6 °F 100% 30.15 in 1.2 mi Calm Calm - N/A   Overcast
2:15 AM 62.8 °F - 62.8 °F 100% 30.14 in 1.0 mi Calm Calm - N/A   Overcast
2:35 AM 63.0 °F - 63.0 °F 100% 30.14 in 1.5 mi Calm Calm - N/A   Mostly Cloudy
2:55 AM 62.6 °F - 62.6 °F 100% 30.13 in 0.5 mi Calm Calm - N/A Fog Fog
3:15 AM 62.8 °F - 62.8 °F 100% 30.13 in 0.5 mi Calm Calm - N/A Fog Fog
3:35 AM 63.1 °F - 63.1 °F 100% 30.13 in 1.5 mi Calm Calm - N/A   Mostly Cloudy
3:55 AM 62.8 °F - 62.8 °F 100% 30.13 in 1.2 mi Calm Calm - N/A   Mostly Cloudy
4:15 AM 63.5 °F - 63.5 °F 100% 30.13 in 2.0 mi Calm Calm - N/A   Overcast
4:35 AM 63.3 °F - 63.3 °F 100% 30.13 in 1.5 mi Calm Calm - N/A   Overcast
4:55 AM 63.1 °F - 63.1 °F 100% 30.13 in 1.0 mi Calm Calm - N/A   Overcast
5:15 AM 63.5 °F - 63.5 °F 100% 30.13 in 2.5 mi Calm Calm - N/A   Overcast
5:35 AM 62.8 °F - 62.8 °F 100% 30.13 in 1.2 mi Calm Calm - N/A   Overcast
5:55 AM 63.3 °F - 63.3 °F 100% 30.13 in 2.0 mi Calm Calm - N/A   Overcast
6:15 AM 62.8 °F - 62.8 °F 100% 30.12 in 0.8 mi Calm Calm - N/A   Overcast
6:35 AM 62.4 °F - 62.4 °F 100% 30.13 in 0.2 mi Calm Calm - N/A Fog Fog
6:55 AM 61.9 °F - 61.9 °F 100% 30.13 in 0.2 mi Calm Calm - N/A Fog Fog
7:15 AM 61.3 °F - 61.3 °F 100% 30.13 in 0.2 mi Calm Calm - N/A Fog Fog
7:35 AM 61.5 °F - 61.5 °F 100% 30.14 in 0.2 mi Calm Calm - N/A Fog Fog
7:55 AM 61.5 °F - 61.5 °F 100% 30.14 in 0.2 mi Calm Calm - N/A Fog Fog
8:15 AM 61.2 °F - 61.2 °F 100% 30.14 in 0.2 mi Calm Calm - N/A Fog Fog
8:35 AM 62.8 °F - 62.8 °F 100% 30.14 in 0.2 mi Calm Calm - N/A Fog Fog
8:55 AM 63.7 °F - 63.7 °F 100% 30.15 in 0.2 mi Calm Calm - N/A Fog Fog
9:15 AM 65.8 °F - 65.8 °F 100% 30.15 in 1.5 mi Calm Calm - N/A   Overcast
9:35 AM 66.4 °F - 66.4 °F 100% 30.15 in 3.0 mi Calm Calm - N/A   Mostly Cloudy
9:55 AM 67.1 °F - 67.1 °F 100% 30.15 in 5.0 mi West 3.5 mph - N/A   Mostly Cloudy
10:15 AM 68.7 °F - 68.7 °F 100% 30.14 in 7.0 mi West 5.8 mph - N/A   Mostly Cloudy
10:35 AM 71.2 °F - 70.9 °F 99% 30.14 in 10.0 mi West 5.8 mph - N/A   Scattered Clouds
10:55 AM 73.4 °F - 71.2 °F 93% 30.13 in 10.0 mi WNW 4.6 mph - N/A   Mostly Cloudy
11:15 AM 72.7 °F - 70.3 °F 92% 30.12 in 10.0 mi West 4.6 mph - N/A   Mostly Cloudy
11:35 AM 73.9 °F - 69.4 °F 86% 30.12 in 10.0 mi WSW 4.6 mph - N/A   Mostly Cloudy
11:55 AM 76.1 °F - 69.8 °F 81% 30.11 in 10.0 mi SW 8.1 mph - N/A   Mostly Cloudy
12:15 PM 76.8 °F - 70.2 °F 80% 30.11 in 10.0 mi West 6.9 mph - N/A   Mostly Cloudy
12:35 PM 76.6 °F - 69.4 °F 78% 30.11 in 10.0 mi SW 5.8 mph - N/A   Scattered Clouds
12:55 PM 78.1 °F - 70.0 °F 76% 30.10 in 10.0 mi West 3.5 mph - N/A   Scattered Clouds
1:15 PM 77.9 °F - 68.7 °F 73% 30.09 in 10.0 mi WNW 5.8 mph - N/A   Scattered Clouds
1:35 PM 78.8 °F - 68.5 °F 71% 30.09 in 10.0 mi West 5.8 mph - N/A   Mostly Cloudy
1:55 PM 78.4 °F - 69.3 °F 73% 30.08 in 10.0 mi West 6.9 mph - N/A   Overcast
2:15 PM 78.8 °F - 68.9 °F 72% 30.07 in 10.0 mi NW 5.8 mph - N/A   Mostly Cloudy
2:35 PM 79.9 °F - 68.7 °F 69% 30.06 in 10.0 mi WNW 4.6 mph - N/A   Mostly Cloudy
2:55 PM 79.5 °F - 67.6 °F 67% 30.05 in 10.0 mi West 4.6 mph - N/A   Mostly Cloudy
3:15 PM 79.9 °F - 66.9 °F 64% 30.04 in 10.0 mi WNW 6.9 mph - N/A   Scattered Clouds
3:35 PM 79.9 °F - 68.2 °F 67% 30.03 in 10.0 mi West 8.1 mph - N/A   Mostly Cloudy
3:55 PM 79.0 °F - 67.5 °F 68% 30.03 in 10.0 mi WSW 4.6 mph - N/A   Mostly Cloudy
4:15 PM 79.5 °F - 67.5 °F 66% 30.02 in 10.0 mi WNW 4.6 mph - N/A   Scattered Clouds
4:35 PM 80.6 °F 83.2 °F 68.0 °F 65% 30.01 in 10.0 mi West 6.9 mph - N/A   Scattered Clouds
4:55 PM 80.1 °F 82.6 °F 67.8 °F 66% 30.00 in 10.0 mi West 5.8 mph - N/A   Scattered Clouds
5:15 PM 79.7 °F - 67.6 °F 66% 30.00 in 10.0 mi WSW 5.8 mph - N/A   Scattered Clouds
5:35 PM 79.0 °F - 66.9 °F 66% 30.01 in 10.0 mi WNW 4.6 mph - N/A   Scattered Clouds
5:55 PM 79.2 °F - 68.2 °F 69% 30.00 in 10.0 mi West 4.6 mph - N/A   Scattered Clouds
6:15 PM 78.8 °F - 67.5 °F 68% 30.00 in 10.0 mi West 4.6 mph - N/A   Scattered Clouds
6:35 PM 77.9 °F - 67.8 °F 71% 29.99 in 10.0 mi Calm Calm - N/A   Clear
6:55 PM 76.5 °F - 68.7 °F 77% 29.99 in 10.0 mi Calm Calm - N/A   Clear
7:15 PM 74.3 °F - 69.1 °F 84% 29.99 in 10.0 mi Calm Calm - N/A   Clear
7:35 PM 72.3 °F - 68.7 °F 88% 29.99 in 10.0 mi Calm Calm - N/A   Clear
7:55 PM 70.5 °F - 68.9 °F 95% 29.99 in 10.0 mi Calm Calm - N/A   Clear
8:15 PM 69.8 °F - 68.9 °F 97% 29.99 in 10.0 mi Calm Calm - N/A   Clear
8:35 PM 69.8 °F - 68.5 °F 96% 29.99 in 10.0 mi Calm Calm - N/A   Clear
8:55 PM 68.4 °F - 68.4 °F 100% 29.99 in 7.0 mi Calm Calm - N/A   Mostly Cloudy
9:15 PM 68.7 °F - 68.4 °F 99% 30.00 in 10.0 mi Calm Calm - N/A   Overcast
9:35 PM 68.9 °F - 68.4 °F 98% 30.00 in 10.0 mi Calm Calm - N/A   Overcast
9:55 PM 69.3 °F - 69.3 °F 100% 29.99 in 7.0 mi Calm Calm - N/A   Mostly Cloudy
10:15 PM 68.9 °F - 68.9 °F 100% 29.98 in 7.0 mi East 4.6 mph - N/A   Scattered Clouds
10:35 PM 68.2 °F - 68.2 °F 100% 29.98 in 7.0 mi Calm Calm - N/A   Clear
10:55 PM 68.2 °F - 68.2 °F 100% 29.98 in 7.0 mi Calm Calm - N/A   Scattered Clouds
11:15 PM 68.2 °F - 68.2 °F 100% 29.98 in 7.0 mi Calm Calm - N/A   Mostly Cloudy
11:35 PM 67.3 °F - 67.3 °F 100% 29.97 in 5.0 mi Calm Calm - N/A   Overcast
11:55 PM 67.6 °F - 67.6 °F 100% 29.97 in 7.0 mi Calm Calm - N/A   Overcast